Weather WX

World > North America > United States > Mississippi

Matherville, Mississippi Regional Weather

Lat: 31.87N, Lon: 88.57W
Wx Zone: MSZ067
Warning FLW WEATHER ALERT - (More Info. Click Here) Warning
Feedback

Matherville, MS Regional Weather

Expires:201906250200;;028564
ASUS44 KJAN 250110
RWRMS 

MISSISSIPPI HOURLY WEATHER ROUNDUP
NATIONAL WEATHER SERVICE JACKSON MS
800 PM CDT MON JUN 24 2019

NOTE: "FAIR: INDICATES FEW OR NO CLOUDS BELOW 12,000 FEET WITH NO
SIGNIFICANT WEATHER AND/OR OBSTRUCTIONS TO VISIBILITY.


MSZ059>079-250200-
SOUTH MISSISSIPPI
  
CITY           SKY/WX    TMP DP  RH WIND       PRES   REMARKS
BROOKHAVEN     FAIR      77  70  78 CALM      29.98S                  
HATTIESBURG    FAIR      80  71  74 CALM      29.96S                  
LAUREL         CLEAR     79  71  76 W3        29.95S                  
MCCOMB         FAIR      79  71  76 SW3       29.97R                  
NATCHEZ        FAIR      78  71  79 S3        29.96S                  
PINE BELT      FAIR      77  72  84 CALM      29.97S                  
$$


SKY/WX - Weather  TMP - Temperature  DP - Dew Point  RH - Relative Humidity
WIND - Wind Direction/Speed PRES - Barometric Pressure VSB - Visibility
WCI - Wind Chill Index E13G22 Wind - East Wind 13 mph/Gusts of 22 mph